Time,TemperatureF,DewpointF,PressureIn,WindDirection,WindDirectionDegrees,WindSpeedMPH,WindSpeedGustMPH,Humidity,HourlyPrecipIn,Conditions,Clouds,dailyrainin,SoftwareType,DateUTC
2013-01-04 00:00:00,39.9,22.3,30.11,SSE,157,4.2,-999.0,49,-99.99,,,0.00,Acu-Link.com,2013-01-04 08:00:00,
2013-01-04 00:15:00,38.8,21.3,30.11,SSE,157,4.7,-999.0,49,-99.99,,,0.00,Acu-Link.com,2013-01-04 08:15:00,
2013-01-04 00:30:00,39.4,19.3,30.11,South,180,3.7,-999.0,44,-99.99,,,0.00,Acu-Link.com,2013-01-04 08:30:00,
2013-01-04 00:46:00,39.4,19.3,30.12,ESE,112,3.2,-999.0,44,-99.99,,,0.00,Acu-Link.com,2013-01-04 08:46:00,
2013-01-04 01:01:00,39.4,21.4,30.11,ESE,112,2.2,-999.0,48,-99.99,,,0.00,Acu-Link.com,2013-01-04 09:01:00,
2013-01-04 01:16:00,42.4,30.3,30.12,SSE,157,3.7,-999.0,62,-99.99,,,0.00,Acu-Link.com,2013-01-04 09:16:00,
2013-01-04 01:31:00,42.6,29.7,30.11,SE,135,3.7,-999.0,60,-99.99,,,0.00,Acu-Link.com,2013-01-04 09:31:00,
2013-01-04 01:47:00,39.6,24.8,30.12,SE,135,1.7,-999.0,55,-99.99,,,0.00,Acu-Link.com,2013-01-04 09:47:00,
2013-01-04 02:02:00,36.9,19.5,30.12,East,90,3.7,-999.0,49,-99.99,,,0.00,Acu-Link.com,2013-01-04 10:02:00,
2013-01-04 02:17:00,37.4,18.0,30.12,SSE,157,3.7,-999.0,45,-99.99,,,0.00,Acu-Link.com,2013-01-04 10:17:00,
2013-01-04 02:32:00,35.8,19.0,30.12,North,0,2.2,-999.0,50,-99.99,,,0.00,Acu-Link.com,2013-01-04 10:32:00,
2013-01-04 02:48:00,34.5,19.2,30.13,SE,135,3.7,-999.0,53,-99.99,,,0.00,Acu-Link.com,2013-01-04 10:48:00,
2013-01-04 03:03:00,36.9,19.5,30.12,SE,135,2.7,-999.0,49,-99.99,,,0.00,Acu-Link.com,2013-01-04 11:03:00,
2013-01-04 03:18:00,35.8,19.5,30.12,ESE,112,4.2,-999.0,51,-99.99,,,0.00,Acu-Link.com,2013-01-04 11:18:00,
2013-01-04 03:34:00,34.7,18.9,30.12,ESE,112,3.2,-999.0,52,-99.99,,,0.00,Acu-Link.com,2013-01-04 11:34:00,
2013-01-04 03:49:00,35.4,21.3,30.13,ESE,112,3.7,-999.0,56,-99.99,,,0.00,Acu-Link.com,2013-01-04 11:49:00,
2013-01-04 04:04:00,36.1,21.5,30.13,ESE,112,3.7,-999.0,55,-99.99,,,0.00,Acu-Link.com,2013-01-04 12:04:00,
2013-01-04 04:20:00,36.9,20.9,30.12,SSE,157,4.7,-999.0,52,-99.99,,,0.00,Acu-Link.com,2013-01-04 12:20:00,
2013-01-04 04:35:00,36.7,24.9,30.12,SSE,157,3.2,-999.0,62,-99.99,,,0.00,Acu-Link.com,2013-01-04 12:35:00,
2013-01-04 04:50:00,37.4,18.5,30.11,SSE,157,3.2,-999.0,46,-99.99,,,0.00,Acu-Link.com,2013-01-04 12:50:00,
2013-01-04 05:05:00,37.2,16.2,30.12,SSE,157,4.2,-999.0,42,-99.99,,,0.00,Acu-Link.com,2013-01-04 13:05:00,
2013-01-04 05:21:00,35.8,17.1,30.12,SSE,157,3.2,-999.0,46,-99.99,,,0.00,Acu-Link.com,2013-01-04 13:21:00,
2013-01-04 05:36:00,34.3,17.1,30.11,SE,135,4.7,-999.0,49,-99.99,,,0.00,Acu-Link.com,2013-01-04 13:36:00,
2013-01-04 05:51:00,34.3,17.1,30.12,South,180,3.7,-999.0,49,-99.99,,,0.00,Acu-Link.com,2013-01-04 13:51:00,
2013-01-04 06:07:00,36.3,16.5,30.12,South,180,4.2,-999.0,44,-99.99,,,0.00,Acu-Link.com,2013-01-04 14:07:00,
2013-01-04 06:22:00,39.0,17.9,30.13,South,180,2.7,-999.0,42,-99.99,,,0.00,Acu-Link.com,2013-01-04 14:22:00,
2013-01-04 06:38:00,36.0,16.7,30.13,SE,135,2.7,-999.0,45,-99.99,,,0.00,Acu-Link.com,2013-01-04 14:38:00,
2013-01-04 06:53:00,35.8,16.6,30.13,ESE,112,4.7,-999.0,45,-99.99,,,0.00,Acu-Link.com,2013-01-04 14:53:00,
2013-01-04 07:08:00,44.1,42.5,30.14,SSW,202,2.7,-999.0,94,-99.99,,,0.00,Acu-Link.com,2013-01-04 15:08:00,
2013-01-04 07:24:00,48.9,43.7,30.16,North,0,0.0,-999.0,82,-99.99,,,0.00,Acu-Link.com,2013-01-04 15:24:00,
2013-01-04 07:39:00,49.1,43.2,30.17,SSW,202,1.7,-999.0,80,-99.99,,,0.00,Acu-Link.com,2013-01-04 15:39:00,
2013-01-04 07:54:00,41.0,25.2,30.17,South,180,1.1,-999.0,53,-99.99,,,0.00,Acu-Link.com,2013-01-04 15:54:00,
2013-01-04 08:09:00,45.1,19.1,30.17,South,180,1.7,-999.0,35,-99.99,,,0.00,Acu-Link.com,2013-01-04 16:09:00,
2013-01-04 08:25:00,44.1,19.5,30.17,North,0,1.7,-999.0,37,-99.99,,,0.00,Acu-Link.com,2013-01-04 16:25:00,
2013-01-04 08:40:00,45.7,20.3,30.18,West,270,0.0,-999.0,36,-99.99,,,0.00,Acu-Link.com,2013-01-04 16:40:00,
2013-01-04 08:55:00,46.4,21.6,30.19,East,90,2.7,-999.0,37,-99.99,,,0.00,Acu-Link.com,2013-01-04 16:55:00,
2013-01-04 09:11:00,51.1,30.0,30.18,SW,225,0.0,-999.0,44,-99.99,,,0.00,Acu-Link.com,2013-01-04 17:11:00,
2013-01-04 09:26:00,48.0,21.0,30.19,NW,315,3.2,-999.0,34,-99.99,,,0.00,Acu-Link.com,2013-01-04 17:26:00,
2013-01-04 09:41:00,49.6,19.5,30.19,West,270,0.0,-999.0,30,-99.99,,,0.00,Acu-Link.com,2013-01-04 17:41:00,
2013-01-04 09:57:00,51.3,23.2,30.19,WSW,247,2.7,-999.0,33,-99.99,,,0.00,Acu-Link.com,2013-01-04 17:57:00,
2013-01-04 10:12:00,52.3,21.0,30.17,NNW,337,0.0,-999.0,29,-99.99,,,0.00,Acu-Link.com,2013-01-04 18:12:00,
2013-01-04 10:27:00,54.1,15.1,30.17,West,270,2.7,-999.0,21,-99.99,,,0.00,Acu-Link.com,2013-01-04 18:27:00,
2013-01-04 10:42:00,56.1,14.4,30.16,NNE,22,2.7,-999.0,19,-99.99,,,0.00,Acu-Link.com,2013-01-04 18:42:00,
2013-01-04 10:58:00,56.5,10.9,30.15,WSW,247,4.7,-999.0,16,-99.99,,,0.00,Acu-Link.com,2013-01-04 18:58:00,
2013-01-04 11:13:00,58.6,11.1,30.14,West,270,3.2,-999.0,15,-99.99,,,0.00,Acu-Link.com,2013-01-04 19:13:00,
2013-01-04 11:28:00,58.1,9.2,30.13,West,270,3.2,-999.0,14,-99.99,,,0.00,Acu-Link.com,2013-01-04 19:28:00,
2013-01-04 11:44:00,58.5,9.5,30.13,West,270,2.7,-999.0,14,-99.99,,,0.00,Acu-Link.com,2013-01-04 19:44:00,
2013-01-04 11:59:00,60.1,12.3,30.11,West,270,2.7,-999.0,15,-99.99,,,0.00,Acu-Link.com,2013-01-04 19:59:00,
2013-01-04 12:14:00,60.3,5.6,30.11,NNW,337,3.2,-999.0,11,-99.99,,,0.00,Acu-Link.com,2013-01-04 20:14:00,
2013-01-04 12:30:00,61.2,6.3,30.10,WNW,292,5.3,-999.0,11,-99.99,,,0.00,Acu-Link.com,2013-01-04 20:30:00,
2013-01-04 12:45:00,60.8,1.6,30.09,WNW,292,4.7,-999.0,9,-99.99,,,0.00,Acu-Link.com,2013-01-04 20:45:00,
2013-01-04 13:00:00,62.2,0.2,30.08,West,270,5.8,-999.0,8,-99.99,,,0.00,Acu-Link.com,2013-01-04 21:00:00,
2013-01-04 13:15:00,62.8,-2.2,30.08,SW,225,3.7,-999.0,7,-99.99,,,0.00,Acu-Link.com,2013-01-04 21:15:00,
2013-01-04 13:31:00,65.7,-11.6,30.08,West,270,5.8,-999.0,4,-99.99,,,0.00,Acu-Link.com,2013-01-04 21:31:00,
2013-01-04 13:46:00,63.5,3.7,30.08,WNW,292,5.3,-999.0,9,-99.99,,,0.00,Acu-Link.com,2013-01-04 21:46:00,
2013-01-04 14:01:00,63.3,3.5,30.08,WNW,292,6.8,-999.0,9,-99.99,,,0.00,Acu-Link.com,2013-01-04 22:01:00,
2013-01-04 14:17:00,63.5,1.2,30.08,WNW,292,4.2,-999.0,8,-99.99,,,0.00,Acu-Link.com,2013-01-04 22:17:00,
2013-01-04 14:32:00,63.5,1.2,30.07,NW,315,4.7,-999.0,8,-99.99,,,0.00,Acu-Link.com,2013-01-04 22:32:00,
2013-01-04 14:47:00,63.7,-4.7,30.08,WNW,292,3.7,-999.0,6,-99.99,,,0.00,Acu-Link.com,2013-01-04 22:47:00,
2013-01-04 15:03:00,64.2,-4.4,30.09,West,270,6.8,-999.0,6,-99.99,,,0.00,Acu-Link.com,2013-01-04 23:03:00,
2013-01-04 15:18:00,64.2,-8.1,30.08,West,270,5.8,-999.0,5,-99.99,,,0.00,Acu-Link.com,2013-01-04 23:18:00,
2013-01-04 15:33:00,63.9,-12.8,30.08,WNW,292,5.8,-999.0,4,-99.99,,,0.00,Acu-Link.com,2013-01-04 23:33:00,
2013-01-04 15:48:00,63.3,-5.0,30.08,WNW,292,3.7,-999.0,6,-99.99,,,0.00,Acu-Link.com,2013-01-04 23:48:00,
2013-01-04 16:04:00,63.1,-2.0,30.09,WNW,292,4.2,-999.0,7,-99.99,,,0.00,Acu-Link.com,2013-01-05 00:04:00,
2013-01-04 16:19:00,65.3,-3.6,30.09,NNW,337,2.7,-999.0,6,-99.99,,,0.00,Acu-Link.com,2013-01-05 00:19:00,
2013-01-04 16:34:00,64.9,4.8,30.09,WSW,247,0.0,-999.0,9,-99.99,,,0.00,Acu-Link.com,2013-01-05 00:34:00,
2013-01-04 16:50:00,59.2,11.6,30.09,SSW,202,0.0,-999.0,15,-99.99,,,0.00,Acu-Link.com,2013-01-05 00:50:00,
2013-01-04 17:05:00,55.9,14.3,30.09,SSE,157,1.1,-999.0,19,-99.99,,,0.00,Acu-Link.com,2013-01-05 01:05:00,
2013-01-04 17:20:00,53.4,17.5,30.10,South,180,1.7,-999.0,24,-99.99,,,0.00,Acu-Link.com,2013-01-05 01:20:00,
2013-01-04 17:36:00,51.6,16.0,30.09,SSW,202,6.3,-999.0,24,-99.99,,,0.00,Acu-Link.com,2013-01-05 01:36:00,
2013-01-04 17:51:00,50.0,19.8,30.10,South,180,5.3,-999.0,30,-99.99,,,0.00,Acu-Link.com,2013-01-05 01:51:00,
2013-01-04 18:06:00,48.4,20.6,30.11,South,180,3.7,-999.0,33,-99.99,,,0.00,Acu-Link.com,2013-01-05 02:06:00,
2013-01-04 18:21:00,47.7,19.3,30.11,SE,135,4.7,-999.0,32,-99.99,,,0.00,Acu-Link.com,2013-01-05 02:21:00,
2013-01-04 18:36:00,47.3,19.7,30.12,SSE,157,5.8,-999.0,33,-99.99,,,0.00,Acu-Link.com,2013-01-05 02:36:00,
2013-01-04 18:52:00,46.8,19.9,30.11,South,180,4.7,-999.0,34,-99.99,,,0.00,Acu-Link.com,2013-01-05 02:52:00,
2013-01-04 19:07:00,47.3,19.0,30.12,SSE,157,6.3,-999.0,32,-99.99,,,0.00,Acu-Link.com,2013-01-05 03:07:00,
2013-01-04 19:22:00,46.9,19.3,30.12,ESE,112,6.8,-999.0,33,-99.99,,,0.00,Acu-Link.com,2013-01-05 03:22:00,
2013-01-04 19:37:00,45.0,20.3,30.13,SSE,157,3.7,-999.0,37,-99.99,,,0.00,Acu-Link.com,2013-01-05 03:37:00,
2013-01-04 19:53:00,46.2,18.7,30.13,SSE,157,6.8,-999.0,33,-99.99,,,0.00,Acu-Link.com,2013-01-05 03:53:00,
2013-01-04 20:08:00,45.5,19.5,30.12,SE,135,5.8,-999.0,35,-99.99,,,0.00,Acu-Link.com,2013-01-05 04:08:00,
2013-01-04 20:23:00,43.9,19.3,30.13,SSE,157,4.7,-999.0,37,-99.99,,,0.00,Acu-Link.com,2013-01-05 04:23:00,
2013-01-04 20:39:00,44.4,19.8,30.14,ESE,112,5.3,-999.0,37,-99.99,,,0.00,Acu-Link.com,2013-01-05 04:39:00,
2013-01-04 21:09:00,42.4,20.4,30.14,ESE,112,2.7,-999.0,41,-99.99,,,0.00,Acu-Link.com,2013-01-05 05:09:00,
2013-01-04 21:24:00,41.5,29.1,30.16,SSE,157,2.7,-999.0,61,-99.99,,,0.00,Acu-Link.com,2013-01-05 05:24:00,
2013-01-04 21:40:00,40.5,19.8,30.16,East,90,4.2,-999.0,43,-99.99,,,0.00,Acu-Link.com,2013-01-05 05:40:00,
2013-01-04 21:55:00,41.4,20.1,30.15,ESE,112,5.8,-999.0,42,-99.99,,,0.00,Acu-Link.com,2013-01-05 05:55:00,
2013-01-04 22:10:00,39.9,19.8,30.16,SE,135,3.7,-999.0,44,-99.99,,,0.00,Acu-Link.com,2013-01-05 06:10:00,
2013-01-04 22:25:00,39.9,19.8,30.16,South,180,4.2,-999.0,44,-99.99,,,0.00,Acu-Link.com,2013-01-05 06:25:00,
2013-01-04 22:41:00,39.9,19.2,30.16,ESE,112,5.3,-999.0,43,-99.99,,,0.00,Acu-Link.com,2013-01-05 06:41:00,
2013-01-04 22:56:00,39.6,19.5,30.16,ESE,112,3.7,-999.0,44,-99.99,,,0.00,Acu-Link.com,2013-01-05 06:56:00,
2013-01-04 23:11:00,39.4,19.3,30.17,SE,135,1.1,-999.0,44,-99.99,,,0.00,Acu-Link.com,2013-01-05 07:11:00,
2013-01-04 23:27:00,39.0,19.5,30.16,ESE,112,3.2,-999.0,45,-99.99,,,0.00,Acu-Link.com,2013-01-05 07:27:00,
2013-01-04 23:42:00,38.8,19.3,30.15,SSE,157,3.7,-999.0,45,-99.99,,,0.00,Acu-Link.com,2013-01-05 07:42:00,
2013-01-04 23:57:00,39.0,19.5,30.16,South,180,3.2,-999.0,45,-99.99,,,0.00,Acu-Link.com,2013-01-05 07:57:00,